This is the latest recevied weather packets stored in our database for station/object W4SNA-3. If no packets are shown the sender has not sent any weather packets the latest 10 day(s).
| Time | Temp. | Humidity | Pressure | Rain* | Wind** | Luminosity | Snow |
|---|---|---|---|---|---|---|---|
| 1788465496 | 32.22° C | 56% | 1019.7 hPa | 0 mm | - | - | - |
| 1788465182 | 32.22° C | 55% | 1019.7 hPa | 0 mm | - | - | - |
| 1788464582 | 32.78° C | 56% | 1019.7 hPa | 0 mm | - | - | - |
| 1788464309 | 32.22° C | 58% | 1019.7 hPa | 0 mm | - | - | - |
| 1788463990 | 32.22° C | 56% | 1019.8 hPa | 0 mm | - | - | - |
| 1788463682 | 32.22° C | 59% | 1019.8 hPa | 0 mm | - | - | - |
| 1788463382 | 32.22° C | 59% | 1019.8 hPa | 0 mm | - | - | - |
| 1788463082 | 31.67° C | 62% | 1019.8 hPa | 0 mm | - | - | - |
| 1788462512 | 31.67° C | 61% | 1019.9 hPa | 0 mm | - | - | - |
| 1788462212 | 31.11° C | 60% | 1020 hPa | 0 mm | - | - | - |
| 1788461913 | 31.11° C | 55% | 1020.1 hPa | 0 mm | - | - | - |
| 1788461612 | 31.67° C | 62% | 1020.2 hPa | 0 mm | - | - | - |
| 1788461312 | 31.67° C | 62% | 1020.2 hPa | 0 mm | - | - | - |
| 1788461012 | 31.11° C | 58% | 1020.2 hPa | 0 mm | - | - | - |
| 1788460712 | 31.11° C | 59% | 1020.2 hPa | 0 mm | - | - | - |
| 1788460412 | 31.11° C | 61% | 1020.4 hPa | 0 mm | - | - | - |
| 1788460112 | 30.56° C | 63% | 1020.4 hPa | 0 mm | - | - | - |
| 1788459811 | 30° C | 62% | 1020.4 hPa | 0 mm | - | - | - |
| 1788459512 | 30° C | 60% | 1020.4 hPa | 0 mm | - | - | - |
| 1788459225 | 30° C | 65% | 1020.5 hPa | 0 mm | - | - | - |
| 1788458912 | 30° C | 62% | 1020.5 hPa | 0 mm | - | - | - |
| 1788458612 | 30° C | 66% | 1020.7 hPa | 0 mm | - | - | - |
| 1788458312 | 30° C | 65% | 1020.6 hPa | 0 mm | - | - | - |
| 1788458012 | 30° C | 61% | 1020.6 hPa | 0 mm | - | - | - |
| 1788457712 | 30° C | 63% | 1020.7 hPa | 0 mm | - | - | - |
* Rain latest hour (hover to see other rain measurements)
** Current wind speed in m/s (hover to see current wind gust speed)